Retour au catalogue

ONEWEB-0528

ActifCommunicationsPO
NORAD 54643·PAYLOAD·🇬🇧 United Kingdom

Lancé Dec 8, 2022 depuis Cape Canaveral Space Force Station

Loading…

Prochains Passages (prochaines 24 heures)

TLE

FraisSource: CelesTrak SupGP

Époque: Sep 14, 2026, 14:11 UTC

1 54643C 22166B   26257.59145833 -.00002515  00000+0 -60961-2 0  2574
2 54643  87.9277 226.2011 0002117  77.0875   1.5978 13.21828984    10

Suivez ONEWEB-0528 en temps réel avec AllMySat

Download on the App Store